STARLINK-1665 (46356 NORAD) Tracking and Keplerian Element Data

This shows tracking and keplerian element data for the satellite.

Feedback or suggestion? Click here.




ElementValue
Catalog46356
NameSTARLINK-1665
Epoch Orbit180
Epoch Day335.91670139
Epoch Year2020
RAAN17.2561
Inclination53.0007
Eccentricity0.0001202
Argument of Perigee80.9616
Mean Anonmoly308.3568
Mean Motion15.05565805
Decay Rate0.00020534
L11 46356U 20062AH 20335.91670139 .00020534 00000-0 14249-2 0 9999
L22 46356 53.0007 17.2561 0001202 80.9616 308.3568 15.05565805 1800

Live tracking and technical data element details for STARLINK-1665 (NORAD 46356). STARLINK-1665 can be tracked NOW for your location showing map with azimuth and elevation plus other details from your city location.

Track the satellite on the map from your city or location and see movement details for azimuth, elevation, latitude, longitude, range, height, and movement on the map or in text.







IsCatalogInMostPopularTable: catalog: 46356, numindb: 28
Update: records affected: 1



GetName: 46356 STARLINK-1665

Hit Count: updated at: Wed, 02 Dec 2020 05:43:58 GMT